User: anonymous   Login
Location: Unspecified
(43.4680°N, 87.1740°E)
Time: 09:08:45
(UTC+00:00)
Language:

ARIANE 5 R/B - Orbit

View from above orbital plane
View from above orbital plane
View from above satellite
View from above satellite

Ground track
Ground track

The orbit data is extracted from the following two-line orbital elements,

1 36125U 09073B   21164.91868932 0.00000050  00000-0  70370-5 0    06
2 36125  98.1427 231.9298 0025978 309.3729  50.6270 14.77166382    03
Epoch (UTC): 13 June 2021 22:02:54
Eccentricity: 0.0025978
inclination: 98.1427°
perigee height: 620 km
apogee height: 656 km
right ascension of ascending node: 231.9298°
argument of perigee: 309.3729°
revolutions per day: 14.77166382
mean anomaly at epoch: 50.6270°
orbit number at epoch: 0

The dashed part of the orbit path shows where the satellite is in the earth's shadow,  

DLR